Regional Weather Roundup
Issued by NWS

Home | Current Version | Previous Version | Text Only | Print | Product List | Glossary On
Versions: 1 2 3 4 5 6 7 8 9 10 11 12 13 14 15 16 17 18 19 20 21 22 23 24 25 26 27 28 29 30 31 32 33 34 35 36 37 38 39 40 41 42 43 44 45 46 47 48 49 50
000
ASUS43 KMKX 290821
RWRWI

WISCONSIN REGIONAL WEATHER ROUNDUP
NATIONAL WEATHER SERVICE MILWAUKEE/SULLIVAN WI
300 AM CDT FRI APR 29 2016

NOTE: "FAIR" INDICATES FEW OR NO CLOUDS BELOW 12,000 FEET WITH NO
SIGNIFICANT WEATHER AND/OR OBSTRUCTIONS TO VISIBILITY.

WIZ001-002-006>008-014>016-023>028-290900-
NORTHWEST WISCONSIN

CITY           SKY/WX    TMP DP  RH WIND       PRES   REMARKS
SUPERIOR ARPT  CLOUDY    27  27  99 CALM      30.16S
ASHLAND        CLOUDY    28  26  92 W3        30.14S
HAYWARD        PTCLDY    30  25  81 CALM      30.12S
SIREN          CLOUDY    31  28  86 CALM      30.14R
CUMBERLAND     CLOUDY    34  32  93 NW6       30.13R WCI  29
RICE LAKE      CLOUDY    38  36  90 S6        30.15R WCI  34
CHETEK         CLOUDY    39  37  91 CALM      30.13S
LADYSMITH      CLOUDY    40  36  84 S6        30.13S
EAU CLAIRE     CLOUDY    39  38  96 NW3       30.13R
MENOMONIE      CLOUDY    39  39  99 W5        30.14S
NEW RICHMOND   CLOUDY    38  38 100 W6        30.15S WCI  33
OSCEOLA        CLOUDY    38  38 100 SW5       30.17S WCI  34
$$

WIZ003>005-009-010-017-018-290900-
NORTH CENTRAL WISCONSIN

CITY           SKY/WX    TMP DP  RH WIND       PRES   REMARKS
MANITOWISH WTR CLOUDY    38  36  94 S7        30.10R WCI  32
ARBOR VITAE    LGT RAIN  39  37  91 SW3       30.10S
WOODRUFF       LGT RAIN  39  37  91 SW3       30.10S
RHINELANDER    CLOUDY    37  35  92 CALM      30.10S
EAGLE RIVER    DRIZZLE   37  32  82 SW3       30.09F
LAND O LAKES   CLOUDY    39  33  78 CALM      30.10S
PHILLIPS       CLOUDY    37  35  90 S3        30.11S
TOMAHAWK       CLOUDY    36  35  95 CALM      30.11S
MEDFORD        CLOUDY    37  36  98 E5        30.10S WCI  33
MERRILL        CLOUDY    37  37  99 CALM      30.11S
$$

WIZ029-030-035-036-043>047-290900-
CENTRAL WISCONSIN

CITY           SKY/WX    TMP DP  RH WIND       PRES   REMARKS
WAUSAU         CLOUDY    39  35  86 N3        30.08F
MOSINEE        CLOUDY    36  36 100 N6        30.10S WCI  31
MARSHFIELD     CLOUDY    38  35  89 N7        30.08S WCI  33
STEVENS POINT  CLOUDY    36  35  96 N7        30.09S WCI  30
WAUPACA        CLOUDY    41  36  82 N6        30.08F
WAUTOMA        NOT AVBL
WISC RAPIDS    CLOUDY    39  34  82 CALM      30.10S
CAMP DOUGLAS   CLOUDY    37  37 100 NW5       30.09R WCI  34
$$

WIZ011>013-019>022-031-037>040-048>050-290900-
NORTHEAST WISCONSIN

CITY           SKY/WX    TMP DP  RH WIND       PRES   REMARKS
ANTIGO         CLOUDY    35  35  98 NE3       30.09S
SHAWANO        CLOUDY    40  36  84 N8        30.09S WCI  35
OCONTO         CLOUDY    41  32  70 N5        30.08S
STURGEON BAY   CLOUDY    39  32  75 NE5       30.10R
GREEN BAY      CLOUDY    43  35  73 N3        30.08R
MANITOWOC      CLOUDY    42  32  67 MISG      30.07R
APPLETON       CLOUDY    39  32  75 N7        30.06S WCI  34
CLINTONVILLE   CLOUDY    39  34  81 N9        30.08S WCI  33
OSHKOSH        CLOUDY    41  34  76 N8        30.06S
$$

WIZ032>034-041-042-053>061-290900-
SOUTHWEST WISCONSIN

CITY           SKY/WX    TMP DP  RH WIND       PRES   REMARKS
LA CROSSE      CLOUDY    40  36  86 N7        30.10S
SPARTA         CLOUDY    38  37  98 N5        30.10F WCI  34
VIROQUA        CLOUDY    37  37 100 NE7       30.07F WCI  31
BOSCOBEL       CLOUDY    41  38  89 CALM      30.09S
PRAIRIE DU CHI CLOUDY    41  36  83 CALM      30.09S
PLATTEVILLE    CLOUDY    40  39  95 N6        30.07S
$$

WIZ056-057-062-063-064-067-068-290900-
SOUTH CENTRAL WISCONSIN

CITY           SKY/WX    TMP DP  RH WIND       PRES   REMARKS
REEDSBURG      CLOUDY    38  37  97 N7        30.08R WCI  32
BARABOO/DELLS  DRIZZLE   37  36  95 N5        30.07S WCI  33
LONE ROCK      CLOUDY    40  38  93 N6        30.09R
MINERAL POINT  CLOUDY    41  39  93 N3        30.06S
MADISON        LGT RAIN  39  38  96 N3        30.06S
MIDDLETON      CLOUDY    40  40  99 NE7       30.06S
WATERTOWN      CLOUDY    39  39 100 N3        30.05S
MONROE         CLOUDY    37  37 100 N3        30.05S
JANESVILLE     CLOUDY    41  41 100 CALM      30.05S
$$

WIZ051-052-058>065-066-070>072-290900-
SOUTHEAST WISCONSIN

CITY           SKY/WX    TMP DP  RH WIND       PRES   REMARKS
MILWAUKEE      LGT RAIN  40  37  89 N7        30.04R FOG
WAUKESHA       LGT RAIN  36  36 100 N3        30.06R
MILWAUKEE/TIMM HVY RAIN  37  36  93 CALM      30.05S
RACINE         LGT RAIN  41  37  86 N9        30.05R
BURLINGTON     CLOUDY    39  38  97 N6        30.04S FOG     WCI  35
KENOSHA        LGT RAIN  41  39  93 N6        30.03S FOG
FOND DU LAC    CLOUDY    41  35  79 NW3       30.06R
SHEBOYGAN      CLOUDY    40  35  83 E3        30.06R
WEST BEND      DRIZZLE   39  34  81 CALM      30.05S
JUNEAU         DRIZZLE   39  37  95 CALM      30.07R
$$

LSZ147-162-290900-
LAKE SUPERIOR

STATION/POSITION TIME  TEMP    WIND        PRES    WAVE
                       AIR SEA DIR/SP/G            HT/PER
                 (UTC) (F)     (DEG/KT/KT) (MB)    (FT/S)
W MID LAKE BUOY  0750   37 36   50/  4/  4 1021.7R   1/ 4
DEVILS ISLAND    0800   37      30/  7/  8 1021.6R
SAXON HARBOR     0700   31     200/  4/  6 1020.0R
$$

LMZ867-665-643>646-290900-
LAKE MICHIGAN

STATION/POSITION TIME  TEMP    WIND        PRES    WAVE
                       AIR SEA DIR/SP/G            HT/PER
                 (UTC) (F)     (DEG/KT/KT) (MB)    (FT/S)
CHAMBERS ISLAND  0700   41      20/  8/ 10 1019.0S
N MID LAKE BUOY  0750   39 38  110/  4/  4 1019.1S   1/ 3
NORTHPORT PIER   0700   41      70/  7/ 10 1019.0S
ALGOMA LAKESHORE 0745          360/  6/  7   N/A
KEWAUNEE LAKESHO 0700   41      10/  1/  3 1017.3F
SHEBOYGAN LAKESH 0800   40     100/  5/  6 1018.7R
PORT WASHINGTON  0740   41     350/  2/  7 1018.3S
S MID LAKE BUOY  0750   41 40   60/  8/  8 1016.3S   1/ 4
KENOSHA   LAKESH 0800   41      10/ 10/ 12 1016.9S
$$

TC  - TEMPERATURE IN CELSIUS
VSB - VISIBILITY IN STATUTE MILES
WCI - WIND CHILL INDEX
HX  - HEAT INDEX





USA.gov is the U.S. government's official web portal to all federal, state and local government web resources and services.